When you browse on this site, cookies collect data to enhance your experience and personalize the content and advertising you see.
Visit our Privacy Policy to learn more. By continuing to use the site, you agree to this use of cookies and data.
  • In Spain
  • List of Countries
  • For 7 days
  • Water Temperature
  • Weather Map
  • Weather Widgets
  • user-avatar
    Login

    Hourly Weather Tirana

    Today, 9 December, Monday

    Time Temperature Precipitation Wind Pressure Humidity
    00:00 +10°C° 0 mm 2 mps 755 mmHg 84%
    01:00 +10°C° 0 mm 2 mps 755 mmHg 83%
    02:00 +9°C° 0 mm 2 mps 755 mmHg 82%
    03:00 +9°C° 0 mm 2 mps 754 mmHg 81%
    04:00 +9°C° 0 mm 2 mps 754 mmHg 80%
    05:00 +9°C° 0 mm 2 mps 754 mmHg 79%
    06:00 +9°C° 0 mm 2 mps 753 mmHg 77%
    07:00 +9°C° 0 mm 3 mps 754 mmHg 76%
    08:00 +10°C° 0 mm 3 mps 753 mmHg 71%
    09:00 +13°C° 0 mm 2 mps 753 mmHg 66%
    10:00 +14°C° 0 mm 2 mps 752 mmHg 61%
    11:00 +15°C° 0 mm 2 mps 752 mmHg 60%
    12:00 +15°C° 0 mm 2 mps 751 mmHg 58%
    13:00 +16°C° 0 mm 2 mps 751 mmHg 57%
    14:00 +14°C° 0.1 mm 3 mps 750 mmHg 62%
    15:00 +13°C° 0.1 mm 3 mps 750 mmHg 66%
    16:00 +12°C° 0.1 mm 4 mps 750 mmHg 70%
    17:00 +12°C° 0.2 mm 4 mps 750 mmHg 70%
    18:00 +12°C° 0.2 mm 4 mps 749 mmHg 69%
    19:00 +11°C° 0.2 mm 4 mps 749 mmHg 68%
    20:00 +11°C° 0.3 mm 4 mps 749 mmHg 68%
    21:00 +12°C° 0.3 mm 4 mps 749 mmHg 67%
    22:00 +12°C° 0.3 mm 5 mps 748 mmHg 66%
    23:00 +12°C° 0.3 mm 5 mps 748 mmHg 68%

    Tomorrow, 10 December, Tuesday

    Time Temperature Precipitation Wind Pressure Humidity
    00:00 +12°C° 0.3 mm 5 mps 748 mmHg 69%
    01:00 +10°C° 0.3 mm 5 mps 748 mmHg 71%
    02:00 +10°C° 1.4 mm 5 mps 747 mmHg 76%
    03:00 +10°C° 1.4 mm 5 mps 747 mmHg 82%
    04:00 +9°C° 1.4 mm 5 mps 746 mmHg 87%
    05:00 +9°C° 1.2 mm 5 mps 747 mmHg 89%
    06:00 +9°C° 1.2 mm 5 mps 747 mmHg 90%
    07:00 +9°C° 1.2 mm 5 mps 747 mmHg 91%
    08:00 +9°C° 0.3 mm 5 mps 747 mmHg 88%
    09:00 +10°C° 0.3 mm 5 mps 747 mmHg 85%
    10:00 +10°C° 0.3 mm 5 mps 747 mmHg 82%
    11:00 +11°C° 0 mm 4 mps 747 mmHg 80%
    12:00 +12°C° 0 mm 4 mps 747 mmHg 77%
    13:00 +12°C° 0 mm 3 mps 746 mmHg 74%
    14:00 +12°C° 0 mm 3 mps 746 mmHg 76%
    15:00 +11°C° 0 mm 3 mps 746 mmHg 78%
    16:00 +11°C° 0 mm 3 mps 746 mmHg 79%
    17:00 +11°C° 0 mm 3 mps 746 mmHg 79%
    18:00 +11°C° 0 mm 3 mps 747 mmHg 79%
    19:00 +10°C° 0 mm 3 mps 747 mmHg 79%
    20:00 +10°C° 0 mm 3 mps 747 mmHg 79%
    21:00 +10°C° 0 mm 3 mps 747 mmHg 79%
    22:00 +10°C° 0 mm 3 mps 747 mmHg 78%
    23:00 +10°C° 0 mm 4 mps 747 mmHg 78%

    Day after tomorrow, 11 December, Wednesday

    Time Temperature Precipitation Wind Pressure Humidity
    00:00 +10°C° 0 mm 4 mps 747 mmHg 79%
    01:00 +10°C° 0 mm 4 mps 747 mmHg 79%
    02:00 +10°C° 0 mm 4 mps 747 mmHg 79%
    03:00 +9°C° 0 mm 5 mps 747 mmHg 78%
    04:00 +9°C° 0 mm 5 mps 747 mmHg 78%
    05:00 +8°C° 0 mm 5 mps 747 mmHg 78%
    06:00 +8°C° 0 mm 5 mps 747 mmHg 77%
    07:00 +8°C° 0 mm 6 mps 748 mmHg 76%
    08:00 +9°C° 0 mm 5 mps 748 mmHg 72%
    09:00 +10°C° 0 mm 5 mps 748 mmHg 68%
    10:00 +10°C° 0 mm 5 mps 749 mmHg 64%
    11:00 +12°C° 0 mm 5 mps 748 mmHg 61%
    12:00 +13°C° 0 mm 5 mps 748 mmHg 57%
    13:00 +14°C° 0 mm 5 mps 748 mmHg 54%
    14:00 +13°C° 0 mm 5 mps 748 mmHg 59%
    15:00 +12°C° 0 mm 5 mps 748 mmHg 64%
    16:00 +10°C° 0 mm 5 mps 748 mmHg 69%
    17:00 +9°C° 0 mm 5 mps 748 mmHg 70%
    18:00 +8°C° 0 mm 4 mps 748 mmHg 71%
    19:00 +9°C° 0 mm 3 mps 748 mmHg 72%
    20:00 +8°C° 0 mm 3 mps 748 mmHg 72%
    21:00 +8°C° 0 mm 3 mps 748 mmHg 72%
    22:00 +8°C° 0 mm 3 mps 749 mmHg 73%
    23:00 +7°C° 0 mm 3 mps 748 mmHg 72%

    12 December, Thursday

    Time Temperature Precipitation Wind Pressure Humidity
    00:00 +7°C° 0 mm 3 mps 748 mmHg 72%
    01:00 +7°C° 0 mm 3 mps 748 mmHg 72%
    02:00 +7°C° 0 mm 3 mps 748 mmHg 72%
    03:00 +7°C° 0 mm 2 mps 748 mmHg 72%
    04:00 +7°C° 0 mm 2 mps 747 mmHg 72%
    05:00 +7°C° 0 mm 2 mps 748 mmHg 73%
    06:00 +7°C° 0 mm 1 mps 748 mmHg 73%
    07:00 +7°C° 0 mm 1 mps 748 mmHg 73%
    08:00 +9°C° 0 mm 1 mps 748 mmHg 69%
    09:00 +10°C° 0 mm 1 mps 748 mmHg 66%
    10:00 +12°C° 0 mm 1 mps 748 mmHg 62%
    11:00 +12°C° 0 mm 1 mps 748 mmHg 61%
    12:00 +13°C° 0 mm 1 mps 747 mmHg 60%
    13:00 +13°C° 0 mm 1 mps 747 mmHg 59%
    14:00 +12°C° 0 mm 1 mps 747 mmHg 63%
    15:00 +11°C° 0 mm 1 mps 747 mmHg 68%
    16:00 +11°C° 0 mm 1 mps 747 mmHg 72%
    17:00 +10°C° 0 mm 1 mps 747 mmHg 73%
    18:00 +10°C° 0 mm 1 mps 747 mmHg 74%
    19:00 +10°C° 0 mm 1 mps 747 mmHg 75%
    20:00 +10°C° 0.1 mm 1 mps 747 mmHg 75%
    21:00 +10°C° 0.1 mm 1 mps 747 mmHg 75%
    22:00 +8°C° 0.1 mm 2 mps 747 mmHg 76%
    23:00 +8°C° 0.2 mm 2 mps 747 mmHg 75%

    13 December, Friday

    Time Temperature Precipitation Wind Pressure Humidity
    00:00 +8°C° 0.2 mm 2 mps 747 mmHg 75%
    01:00 +9°C° 0.2 mm 2 mps 747 mmHg 75%
    02:00 +8°C° 0.2 mm 2 mps 747 mmHg 76%
    03:00 +8°C° 0.2 mm 2 mps 747 mmHg 77%
    04:00 +8°C° 0.2 mm 2 mps 747 mmHg 78%
    05:00 +8°C° 0.3 mm 2 mps 747 mmHg 77%
    06:00 +9°C° 0.3 mm 2 mps 747 mmHg 77%
    07:00 +9°C° 0.3 mm 3 mps 747 mmHg 76%
    08:00 +9°C° 0.3 mm 3 mps 747 mmHg 77%
    09:00 +9°C° 0.3 mm 3 mps 747 mmHg 78%
    10:00 +8°C° 0.3 mm 4 mps 747 mmHg 80%
    11:00 +10°C° 0.2 mm 4 mps 747 mmHg 77%
    12:00 +11°C° 0.2 mm 4 mps 746 mmHg 74%
    13:00 +12°C° 0.2 mm 4 mps 746 mmHg 71%
    14:00 +11°C° 0.1 mm 4 mps 746 mmHg 74%
    15:00 +11°C° 0.1 mm 4 mps 746 mmHg 77%
    16:00 +10°C° 0.1 mm 4 mps 745 mmHg 80%
    17:00 +9°C° 0 mm 5 mps 745 mmHg 81%
    18:00 +8°C° 0 mm 6 mps 745 mmHg 82%
    19:00 +8°C° 0 mm 6 mps 745 mmHg 82%
    20:00 +7°C° 0.5 mm 8 mps 744 mmHg 82%
    21:00 +8°C° 0.5 mm 9 mps 743 mmHg 81%
    22:00 +8°C° 0.5 mm 10 mps 742 mmHg 81%
    23:00 +7°C° 3.6 mm 10 mps 742 mmHg 84%

    14 December, Saturday

    Time Temperature Precipitation Wind Pressure Humidity
    00:00 +7°C° 3.6 mm 10 mps 741 mmHg 86%
    01:00 +7°C° 3.6 mm 10 mps 740 mmHg 89%
    02:00 +7°C° 2.1 mm 9 mps 739 mmHg 89%
    03:00 +7°C° 2.1 mm 9 mps 739 mmHg 89%
    04:00 +9°C° 2.1 mm 8 mps 739 mmHg 89%
    05:00 +9°C° 0.5 mm 8 mps 740 mmHg 87%
    06:00 +9°C° 0.5 mm 8 mps 741 mmHg 85%
    07:00 +9°C° 0.5 mm 8 mps 742 mmHg 83%
    08:00 +9°C° 0.4 mm 8 mps 743 mmHg 82%
    09:00 +10°C° 0.4 mm 8 mps 744 mmHg 81%
    10:00 +11°C° 0.4 mm 8 mps 745 mmHg 79%
    11:00 +11°C° 0 mm 7 mps 745 mmHg 73%
    12:00 +13°C° 0 mm 6 mps 745 mmHg 67%
    13:00 +14°C° 0 mm 4 mps 745 mmHg 61%
    14:00 +13°C° 0 mm 3 mps 746 mmHg 64%
    15:00 +13°C° 0 mm 3 mps 747 mmHg 67%
    16:00 +13°C° 0 mm 2 mps 747 mmHg 70%
    17:00 +13°C° 0 mm 1 mps 748 mmHg 71%
    18:00 +12°C° 0 mm 1 mps 749 mmHg 71%
    19:00 +12°C° 0 mm 1 mps 750 mmHg 72%
    20:00 +11°C° 0 mm 1 mps 750 mmHg 72%
    21:00 +10°C° 0 mm 2 mps 751 mmHg 72%
    22:00 +10°C° 0 mm 2 mps 752 mmHg 71%
    23:00 +10°C° 0 mm 2 mps 752 mmHg 71%
    Show more